| time (UTC) | temp F | wind direction | speed MPH | gust MPH | rain 1hr in | rain 24hr in | rain mn in | humidity % | barometer mb |
| 20260906110005 | 39 | 179 | 0.0 | 0.0 | 0.00 | 0.00 | 0.00 | 79 | 1014.7 |
| 20260906104503 | 40 | 179 | 0.0 | 0.0 | 0.00 | 0.00 | 0.00 | 79 | 1014.7 |
| 20260906103001 | 40 | 179 | 0.0 | 0.0 | 0.00 | 0.00 | 0.00 | 79 | 1014.6 |
| 20260906101600 | 40 | 179 | 0.0 | 0.0 | 0.00 | 0.00 | 0.00 | 78 | 1014.5 |
| 20260906100058 | 40 | 179 | 0.0 | 0.0 | 0.00 | 0.00 | 0.00 | 78 | 1014.4 |
| 20260906094558 | 41 | 179 | 0.0 | 0.0 | 0.00 | 0.00 | 0.00 | 78 | 1014.5 |
| 20260906093057 | 41 | 100 | 0.0 | 0.0 | 0.00 | 0.00 | 0.00 | 80 | 1014.4 |
| 20260906091554 | 41 | 100 | 0.0 | 0.0 | 0.00 | 0.00 | 0.00 | 79 | 1014.0 |
| 20260906090056 | 41 | 101 | 0.0 | 0.0 | 0.00 | 0.00 | 0.00 | 79 | 1013.9 |
| 20260906084552 | 42 | 101 | 0.0 | 0.0 | 0.00 | 0.00 | 0.00 | 79 | 1014.1 |
| 20260906083052 | 42 | 101 | 0.0 | 0.0 | 0.00 | 0.00 | 0.00 | 79 | 1014.2 |
| 20260906081547 | 42 | 100 | 0.0 | 0.0 | 0.00 | 0.00 | 0.00 | 79 | 1014.2 |
| 20260906080047 | 43 | 101 | 0.0 | 0.0 | 0.00 | 0.00 | 0.00 | 79 | 1014.3 |
| 20260906074544 | 43 | 100 | 0.0 | 0.0 | 0.00 | 0.00 | 0.00 | 78 | 1014.3 |
| 20260906073041 | 44 | 101 | 0.0 | 0.0 | 0.00 | 0.00 | 0.00 | 77 | 1014.3 |
| 20260906071540 | 44 | 100 | 0.0 | 0.0 | 0.00 | 0.00 | 0.00 | 78 | 1014.4 |
| 20260906070041 | 44 | 101 | 0.0 | 0.0 | 0.00 | 0.00 | 0.00 | 77 | 1014.4 |
| 20260906064537 | 44 | 101 | 0.0 | 0.0 | 0.00 | 0.00 | 0.00 | 77 | 1014.6 |
| 20260906063034 | 45 | 100 | 0.0 | 0.0 | 0.00 | 0.00 | 0.00 | 76 | 1014.4 |
| 20260906061535 | 46 | 100 | 0.0 | 0.0 | 0.00 | 0.00 | 0.00 | 74 | 1014.3 |
| 20260906060033 | 46 | 100 | 0.0 | 0.0 | 0.00 | 0.00 | 0.00 | 75 | 1014.2 |
| 20260906054542 | 46 | 100 | 0.0 | 0.0 | 0.00 | 0.00 | 0.00 | 75 | 1014.2 |
| 20260906053029 | 47 | 100 | 0.0 | 0.0 | 0.00 | 0.00 | 0.00 | 74 | 1014.3 |
| 20260906051528 | 47 | 101 | 0.0 | 0.0 | 0.00 | 0.00 | 0.00 | 73 | 1014.2 |
| 20260906050028 | 48 | 100 | 0.0 | 0.0 | 0.00 | 0.00 | 0.00 | 71 | 1014.0 |
| 20260906044528 | 49 | 100 | 0.0 | 0.0 | 0.00 | 0.00 | 0.00 | 70 | 1014.0 |
| 20260906043027 | 49 | 101 | 0.0 | 0.0 | 0.00 | 0.00 | 0.00 | 70 | 1013.9 |
| 20260906041530 | 50 | 100 | 0.0 | 0.0 | 0.00 | 0.00 | 0.00 | 69 | 1013.9 |
| 20260906040049 | 51 | 101 | 0.0 | 0.0 | 0.00 | 0.00 | 0.00 | 68 | 1013.7 |
| 20260906034526 | 51 | 101 | 0.0 | 0.0 | 0.00 | 0.00 | 0.00 | 68 | 1013.3 |
| 20260906033039 | 52 | 100 | 0.0 | 0.0 | 0.00 | 0.00 | 0.00 | 64 | 1013.1 |
| 20260906031525 | 53 | 100 | 0.0 | 0.0 | 0.00 | 0.00 | 0.00 | 63 | 1012.8 |
| 20260906030026 | 54 | 100 | 0.0 | 0.0 | 0.00 | 0.00 | 0.00 | 63 | 1012.6 |
| 20260906024524 | 55 | 100 | 0.0 | 0.0 | 0.00 | 0.00 | 0.00 | 61 | 1012.3 |
| 20260906023024 | 56 | 100 | 0.0 | 0.0 | 0.00 | 0.00 | 0.00 | 58 | 1012.1 |
| 20260906021523 | 57 | 100 | 0.0 | 0.0 | 0.00 | 0.00 | 0.00 | 56 | 1011.7 |
| 20260906020022 | 58 | 100 | 0.0 | 0.0 | 0.00 | 0.00 | 0.00 | 54 | 1011.5 |
| 20260906014526 | 60 | 100 | 0.0 | 0.0 | 0.00 | 0.00 | 0.00 | 53 | 1011.2 |
| 20260906013021 | 61 | 100 | 0.0 | 0.0 | 0.00 | 0.00 | 0.00 | 47 | 1011.1 |
| 20260906011520 | 63 | 100 | 0.0 | 0.0 | 0.00 | 0.00 | 0.00 | 44 | 1010.8 |
| 20260906010020 | 65 | 101 | 0.0 | 0.0 | 0.00 | 0.00 | 0.00 | 42 | 1010.8 |
| 20260906004519 | 66 | 100 | 0.0 | 2.0 | 0.00 | 0.00 | 0.00 | 40 | 1010.6 |
| 20260906003018 | 68 | 25 | 0.0 | 1.0 | 0.00 | 0.00 | 0.00 | 37 | 1010.5 |
| 20260906001517 | 71 | 277 | 0.0 | 5.0 | 0.00 | 0.00 | 0.00 | 35 | 1010.4 |
| 20260906000018 | 72 | 133 | 0.0 | 2.0 | 0.00 | 0.00 | 0.00 | 34 | 1010.3 |
| 20260905234518 | 73 | 335 | 0.0 | 4.0 | 0.00 | 0.00 | 0.00 | 33 | 1010.2 |
| 20260905233014 | 74 | 89 | 0.0 | 4.0 | 0.00 | 0.00 | 0.00 | 32 | 1010.2 |
| 20260905231519 | 74 | 164 | 0.0 | 3.0 | 0.00 | 0.00 | 0.00 | 32 | 1010.1 |
| 20260905230013 | 73 | 199 | 0.0 | 10.0 | 0.00 | 0.00 | 0.00 | 33 | 1010.0 |
| 20260905224525 | 74 | 139 | 0.0 | 4.0 | 0.00 | 0.00 | 0.00 | 32 | 1010.1 |
| 20260905223013 | 75 | 97 | 0.0 | 5.0 | 0.00 | 0.00 | 0.00 | 32 | 1010.1 |
| 20260905221510 | 75 | 235 | 0.0 | 2.0 | 0.00 | 0.00 | 0.00 | 33 | 1010.2 |
| 20260905220009 | 74 | 299 | 0.0 | 3.0 | 0.00 | 0.00 | 0.00 | 34 | 1010.4 |
| 20260905214507 | 74 | 101 | 0.0 | 4.0 | 0.00 | 0.00 | 0.00 | 33 | 1010.6 |
| 20260905213006 | 75 | 207 | 0.0 | 3.0 | 0.00 | 0.00 | 0.00 | 34 | 1010.8 |
| 20260905211511 | 75 | 214 | 0.0 | 8.0 | 0.00 | 0.00 | 0.00 | 35 | 1011.0 |
| 20260905210003 | 75 | 135 | 2.0 | 7.0 | 0.00 | 0.00 | 0.00 | 33 | 1011.3 |
| 20260905204603 | 75 | 118 | 1.0 | 8.0 | 0.00 | 0.00 | 0.00 | 33 | 1011.6 |
| 20260905203100 | 74 | 169 | 1.0 | 3.0 | 0.00 | 0.00 | 0.00 | 33 | 1011.7 |
| 20260905201558 | 74 | 132 | 0.0 | 4.0 | 0.00 | 0.00 | 0.00 | 37 | 1011.7 |
| 20260905200100 | 74 | 19 | 0.0 | 2.0 | 0.00 | 0.00 | 0.00 | 35 | 1011.8 |
| 20260905194555 | 74 | 130 | 0.0 | 3.0 | 0.00 | 0.00 | 0.00 | 34 | 1012.0 |
| 20260905193051 | 73 | 173 | 0.0 | 3.0 | 0.00 | 0.00 | 0.00 | 39 | 1012.1 |
| 20260905191549 | 73 | 278 | 0.0 | 1.0 | 0.00 | 0.00 | 0.00 | 39 | 1012.4 |
| 20260905190046 | 72 | 84 | 0.0 | 4.0 | 0.00 | 0.00 | 0.00 | 39 | 1012.6 |
| 20260905184554 | 71 | 173 | 0.0 | 3.0 | 0.00 | 0.00 | 0.00 | 43 | 1012.8 |
| 20260905183040 | 69 | 42 | 0.0 | 4.0 | 0.00 | 0.00 | 0.00 | 43 | 1013.2 |
| 20260905181538 | 67 | 52 | 2.0 | 6.0 | 0.00 | 0.00 | 0.00 | 44 | 1013.5 |
| 20260905180043 | 67 | 98 | 0.0 | 3.0 | 0.00 | 0.00 | 0.00 | 48 | 1013.6 |
| 20260905174538 | 65 | 314 | 0.0 | 6.0 | 0.00 | 0.00 | 0.00 | 50 | 1013.9 |
| 20260905173054 | 65 | 106 | 0.0 | 2.0 | 0.00 | 0.00 | 0.00 | 48 | 1013.8 |
| 20260905171536 | 67 | 167 | 0.0 | 5.0 | 0.00 | 0.00 | 0.00 | 45 | 1013.6 |
| 20260905170035 | 68 | 106 | 2.0 | 5.0 | 0.00 | 0.00 | 0.00 | 43 | 1013.9 |
| 20260905164533 | 67 | 96 | 0.0 | 3.0 | 0.00 | 0.00 | 0.00 | 46 | 1013.8 |
| 20260905163030 | 67 | 131 | 0.0 | 0.0 | 0.00 | 0.00 | 0.00 | 51 | 1013.7 |
| 20260905161525 | 64 | 77 | 0.0 | 0.0 | 0.00 | 0.00 | 0.00 | 60 | 1013.9 |
| 20260905160021 | 62 | 62 | 0.0 | 0.0 | 0.00 | 0.00 | 0.00 | 65 | 1014.2 |
| 20260905154518 | 59 | 62 | 0.0 | 0.0 | 0.00 | 0.00 | 0.00 | 68 | 1014.4 |
| 20260905153018 | 55 | 62 | 0.0 | 0.0 | 0.00 | 0.00 | 0.00 | 74 | 1014.6 |
| 20260905151518 | 52 | 63 | 0.0 | 0.0 | 0.00 | 0.00 | 0.00 | 81 | 1014.8 |
| 20260905150006 | 47 | 62 | 0.0 | 0.0 | 0.00 | 0.00 | 0.00 | 88 | 1014.9 |
| 20260905144514 | 44 | 62 | 0.0 | 0.0 | 0.00 | 0.00 | 0.00 | 90 | 1014.9 |
| 20260905143005 | 43 | 62 | 0.0 | 0.0 | 0.00 | 0.00 | 0.00 | 92 | 1014.9 |
| 20260905141503 | 42 | 62 | 0.0 | 0.0 | 0.00 | 0.00 | 0.00 | 92 | 1015.0 |
| 20260905134501 | 42 | 62 | 0.0 | 0.0 | 0.00 | 0.00 | 0.00 | 92 | 1014.9 |
| 20260905133105 | 42 | 62 | 0.0 | 0.0 | 0.00 | 0.00 | 0.00 | 92 | 1014.8 |
| 20260905131600 | 41 | 62 | 0.0 | 0.0 | 0.00 | 0.00 | 0.00 | 92 | 1014.6 |
| 20260905130057 | 41 | 62 | 0.0 | 0.0 | 0.00 | 0.00 | 0.00 | 91 | 1014.5 |
| 20260905124555 | 42 | 62 | 0.0 | 0.0 | 0.00 | 0.00 | 0.00 | 91 | 1014.2 |
| 20260905123105 | 42 | 62 | 0.0 | 0.0 | 0.00 | 0.00 | 0.00 | 91 | 1014.0 |
| 20260905121555 | 42 | 62 | 0.0 | 0.0 | 0.00 | 0.00 | 0.00 | 91 | 1013.7 |
| 20260905120051 | 42 | 62 | 0.0 | 0.0 | 0.00 | 0.00 | 0.00 | 91 | 1013.6 |
| 20260905114556 | 42 | 62 | 0.0 | 0.0 | 0.00 | 0.00 | 0.00 | 91 | 1013.6 |
| 20260905113046 | 42 | 62 | 0.0 | 0.0 | 0.00 | 0.00 | 0.00 | 90 | 1013.5 |
| 20260905111546 | 42 | 62 | 0.0 | 0.0 | 0.00 | 0.00 | 0.00 | 91 | 1013.5 |